This demonstration page uses our WeatherBlox Daily Observations layout. Learn more.

Left ArrowRight Arrow

34.74481, -87.66753

Hourly Observations for March 23, 2021

Temp ( °F °C ) Dew Point ( °F °C ) Humidity (%) Winds ( mph kmh ) Pressure ( in mb ) Visibility ( mi km ) Precip ( " mm )
12:53 am 00:53 Cloudy 64 17.8 43 6.1 46 46 SE 7 11 29.96 1015 10 16 0.00 0.00
1:53 am 01:53 Cloudy 63 17.2 44 6.7 50 50 SE 7 11 29.96 1014 10 16 0.00 0.00
2:53 am 02:53 Mostly Cloudy 62 16.7 44 6.7 52 52 ESE 6 9 29.95 1014 10 16 0.00 0.00
3:53 am 03:53 Mostly Cloudy 63 17.2 44 6.7 50 50 SE 13 20 29.93 1014 10 16 0.00 0.00
4:53 am 04:53 Mostly Clear 64 17.8 44 6.7 48 48 SE 13 20 29.90 1013 10 16 0.00 0.00
5:53 am 05:53 Mostly Cloudy 63 17.2 45 7.2 52 52 SE 9 15 29.91 1013 10 16 0.00 0.00
6:53 am 06:53 Cloudy 63 17.2 45 7.2 52 52 SE 12 19 29.92 1013 10 16 0.00 0.00
7:53 am 07:53 Mostly Cloudy 64 17.8 46 7.8 52 52 SE 13 20 29.92 1013 10 16 0.00 0.00
8:53 am 08:53 Cloudy 65 18.3 48 8.9 54 54 SE 17 28 29.91 1013 10 16 0.00 0.00
9:53 am 09:53 Mostly Cloudy 66 18.9 49 9.4 54 54 SSE 20 31 29.91 1013 10 16 0.00 0.00
10:42 am 10:42 Cloudy with Heavy Rain 63 17.2 52 11.1 68 68 SW 8 13 29.99 1016 2 3 0.00 0.00
10:53 am 10:53 Cloudy with Rain 62 16.7 53 11.7 73 73 SSW 9 15 30.00 1016 2 3 0.00 0.00
11:50 am 11:50 Cloudy with Rain 61 16 55 13 83 83 SE 8 13 29.98 1015 3 5 0.00 0.00
11:53 am 11:53 Cloudy with Rain 60 15.6 54 12.2 80 80 SE 9 15 29.97 1015 3 4 0.00 0.00
12:00 pm 12:00 Cloudy with Rain 60 15.6 54 12.2 80 80 ESE 9 15 29.97 1015 3 5 0.00 0.00
12:09 pm 12:09 Cloudy with Heavy Rain 60 15.6 55 12.8 84 84 SE 12 19 29.96 1014 3 4 0.00 0.00
12:21 pm 12:21 Cloudy with Rain 60 15.6 55 12.8 84 84 ESE 12 19 29.93 1013 3 5 0.00 0.00
12:53 pm 12:53 Partly Cloudy 62 16.7 56 13.3 80 80 SE 14 22 29.91 1013 10 16 0.00 0.00
1:53 pm 13:53 Cloudy 62 16.7 55 12.8 78 78 SE 16 26 29.88 1012 9 14 0.00 0.00
2:26 pm 14:26 Cloudy 62 16.7 55 12.8 78 78 SE 20 31 29.86 1011 10 16 0.00 0.00
2:53 pm 14:53 Cloudy 63 17.2 55 12.8 76 76 SE 15 24 29.85 1011 10 16 0.00 0.00
3:53 pm 15:53 Cloudy 64 17.8 54 12.2 70 70 SE 14 22 29.83 1010 10 16 0.00 0.00
4:23 pm 16:23 Cloudy 63 17.2 54 12.2 73 73 SE 14 22 29.83 1010 10 16 0.00 0.00
4:53 pm 16:53 Cloudy 63 17.2 54 12.2 73 73 SE 14 22 29.83 1010 10 16 0.00 0.00
5:22 pm 17:22 Mostly Cloudy 64 17.8 55 12.8 73 73 SE 12 19 29.81 1010 10 16 0.00 0.00
5:53 pm 17:53 Mostly Sunny 63 17.2 54 12.2 73 73 SE 13 20 29.81 1010 10 16 0.00 0.00
6:53 pm 18:53 Partly Cloudy 62 16.7 54 12.2 75 75 SE 8 13 29.82 1010 10 16 0.00 0.00
7:53 pm 19:53 Mostly Clear 61 16.1 54 12.2 78 78 SE 7 11 29.83 1010 10 16 0.00 0.00
8:06 pm 20:06 Mostly Cloudy 61 16.1 54 12.2 78 78 ESE 7 11 29.84 1010 10 16 0.00 0.00
8:53 pm 20:53 Mostly Cloudy 60 15.6 54 12.2 80 80 ESE 7 11 29.83 1010 10 16 0.00 0.00
9:53 pm 21:53 Mostly Cloudy 61 16.1 54 12.2 78 78 SSE 8 13 29.85 1011 10 16 0.00 0.00
10:06 pm 22:06 Partly Cloudy 61 16.1 54 12.2 78 78 SE 8 13 29.87 1011 10 16 0.00 0.00
10:53 pm 22:53 Clear 61 16.1 53 11.7 75 75 SSE 10 17 29.85 1011 10 16 0.00 0.00
11:53 pm 23:53 Clear 60 15.6 53 11.7 78 78 S 8 13 29.87 1012 10 16 0.00 0.00

Powered by AerisWeather